Volver al catálogo

STARLINK-4544

ActivoComunicacionesVLEO
NORAD 53394·PAYLOAD·🇺🇸 United States

Lanzado Aug 10, 2022 desde Cape Canaveral Space Force Station

Loading…

Próximos Pases (próximas 24 horas)

TLE

ActualizadoSource: CelesTrak SupGP

Época: Sep 15, 2026, 02:44 UTC

1 53394C 22097G   26258.11437500  .00043412  00000+0  13962-2 0  2582
2 53394  53.1603 332.6504 0001229  88.4146 133.7890 15.31676429    18

Sigue STARLINK-4544 en tiempo real con AllMySat

Download on the App Store